Tracking 35055 objects as of 18-Aug-2026
HD Live streaming from Space Station
objects crossing your sky now

QIANFAN-205

Track QIANFAN-205 now!
10-day predictions
QIANFAN-205 is classified as:


NORAD ID: 69804
Int'l Code: 2026-153E
Launch date: July 4, 2026
Source: People's Republic of China (PRC)
Launch site: Taiyaun Space Center, China (TSC)
Your satellite tracking list
Your tracking list is empty




NASA's NSSDC Master Catalog

Two Line Element Set (TLE):
1 69804U 26153E   26230.54533434  .00000338  00000-0  18289-3 0  9993
2 69804  88.9963 355.1578 0009857  78.0804 282.1485 14.10162184  6400
Source of the keplerian elements: AFSPC